MyTimes logo

TIMES

Webb Imagery

12/02/2006
Channel Challenge
550m Swim / 2.0km Run - Local Residents

(Click on competitor name to view personalised results)

Name
Race #
Category
Time
(h:mm:ss)
Avg Speed
km/hr
OAll
Place
Cat
Place
COOPER Brett#136Local Senior Male0:11:42 13.1 11
EVANS Brad#6Local Senior Male0:13:36 11.2 22
YUSKO Daniel#112Local Senior Male0:13:53 11 33
FLEISNER Rob#591Local Male 40-490:14:17 10.7 41
BUTT Chloe#323Local Junior Female0:14:29 10.6 51
TAYLOR Jake#214Local Senior Male0:14:51 10.3 64
TILLEY Justin#121Local Senior Male0:15:13 10.1 75
CARTER Lachlan#113Local Senior Male0:15:14 10 86
KERR Lewis#626Local Junior Male0:15:14 10 91
HANLEY Philip#197Local Male 50+0:15:22 10 101
DALLINGER Chris#184Local Senior Male0:15:23 9.9 117
ROLLAND Thierry#631Local Male 40-490:15:25 9.9 122
YUSKO Bill#604Local Male 50+0:15:30 9.9 132
HANLEY Tim#227Local Senior Male0:15:34 9.8 148
CORBETT Jim#648Local Male 40-490:15:36 9.8 153
HEWETT Noel#517Local Male 40-490:15:50 9.7 161
HUTCHISON Warwick#165Local Senior Male0:15:59 9.6 179
STEWART Alastair#669Local Junior Male0:15:59 9.6 182
SLAVIN Gavin#231Local Senior Male0:16:15 9.4 1910
MATTHEWS Jack#92Local Senior Male0:16:20 9.4 2011
WILKINS Darren#230Local Senior Male0:16:22 9.3 2112
OKE Tim#667Local Junior Male0:16:30 9.3 223
MARSHALL Luke#177Local Senior Male0:16:33 9.2 2313
FISHER Kevin#95Local Male 40-490:16:39 9.2 244
STOCK Adam#582Local Junior Male0:16:40 9.2 254
CHAN Marty#155Local Senior Male0:16:49 9.1 2614
BINCH David#221Local Senior Male0:16:57 9 2715
CHISHOLM Andy#88Local Senior Male0:17:00 9 2816
CROWE Susie#447Local Junior Female0:17:00 9 292
KEADY Arran#192Local Senior Male0:17:01 9 3017
BROOMHILL Jason#637Local Junior Male0:17:01 9 315
EVANS Bree#476Local Senior Female0:17:02 9 321
PIROUET Nathan#130Local Senior Male0:17:09 8.9 3318
BOND Marcus#29Local Senior Male0:17:15 8.9 341
JONES Cam#152Local Senior Male0:17:16 8.9 3519
CARGILL Sam#651Local Junior Male0:17:19 8.8 366
RIELLY Debbie#417Local Senior Female0:17:31 8.7 372
BAYLEY Matthew#147Local Senior Male0:17:40 8.7 3820
ALDERSON Allan#655Local Male 50+0:17:41 8.7 393
FLEISNER Paul#555Local Male 50+0:17:43 8.6 404
BEAUMONT Tyron#503Local Junior Male0:17:44 8.6 417
HOMER Ivan#623Local Male 40-490:17:45 8.6 425
MAIER David#618Local Male 40-490:17:46 8.6 436
MANTEIT Mark#575Local Male 40-490:17:54 8.5 447
STOOPMAN Jo#435Local Senior Female0:17:55 8.5 453
MC HENRY Simon#149Local Senior Male0:17:58 8.5 4621
JUDD Gary#616Local Male 40-490:18:01 8.5 478
THOMPSON David#86Local Senior Male0:18:20 8.3 4822
DAVIE Jasmine#327Local Junior Female0:18:20 8.3 493
DAFF Geoff#557Local Male 50+0:18:20 8.3 501
MANNING Simon#577Local Male 40-490:18:23 8.3 519
HAMPTON Steven#90Local Senior Male0:18:24 8.3 5223
LATHAM Tony#624Local Male 40-490:18:24 8.3 5310
DAVIE Angie#307Local Female 40-490:18:29 8.3 541
HORNSBY Tony#183Local Senior Male0:18:37 8.2 5524
FOSTIN Bianca#463Local Senior Female0:18:43 8.2 564
HARRISON Hamish#634Local Junior Male0:18:43 8.2 578
RYAN Daniel#74Local Senior Male0:18:47 8.1 581
BLUNDELL Adam#153Local Senior Male0:18:51 8.1 5925
HAMILTON James#660Local Junior Male0:18:54 8.1 609
GORSUCH Scott#93Local Senior Male0:18:57 8.1 6126
HUGHEO Hilary#475Local Senior Female0:19:02 8 625
O'KEEFE Louise#382Local Senior Female0:19:03 8 631
O'SHEA Kelly#499Local Senior Female0:19:05 8 646
SUMMERFIELD Ben#502Local Junior Male0:19:08 8 651
O'DONOHUE Mark#612Local Male 40-490:19:13 8 6611
WRIGHT Bruce#589Local Male 40-490:19:17 7.9 6712
ALLWOOD N#26Local Senior Male0:19:20 7.9 681
O'CONNOR Gavan#220Local Male 40-490:19:22 7.9 6913
CARTER Dean#544Local Male 50+0:19:27 7.9 701
MANTEIT Alex#576Local Junior Male0:19:30 7.8 7110
GRUMMISCH Mark#134Local Senior Male0:19:34 7.8 7227
POTTER Brian#148Local Senior Male0:19:35 7.8 7328
PETRUCCI Gina#377Local Senior Female0:19:36 7.8 741
OWENS Harley#635Local Junior Male0:19:36 7.8 7511
TANCHEFF Brian#650Local Male 40-490:19:37 7.8 7614
O'BRIEN Nathaniel#135Local Senior Male0:19:39 7.8 7729
SUNDERLAND Peter#592Local Male 40-490:19:48 7.7 7815
ABLETT Zachary#226Local Senior Male0:19:51 7.7 7930
CAMERON Jane#409Local Female 40-490:19:57 7.7 802
O'SULLIVAN Janine#333Local Senior Female0:20:04 7.6 811
WHITEHOUSE Melanie#429Local Junior Female0:20:06 7.6 824
JALANDO-ON Rio#174Local Senior Male0:20:11 7.6 8331
EVANS Kym#337Local Senior Female0:20:12 7.6 841
GODING Lindsay#242Local Senior Male0:20:13 7.6 8532
MANNING John#241Local Senior Male0:20:14 7.6 8633
FITZGERALD Richard#512Local Male 40-490:20:20 7.5 871
EARL Lachlan#652Local Junior Male0:20:24 7.5 8812
SMITH Paul#593Local Male 50+0:20:26 7.5 895
MADDOX Rachael#420Local Junior Female0:20:32 7.5 905
DALLINGER Brian#600Local Male 50+0:20:32 7.5 916
SPENCER Alyn#353Local Senior Female0:20:35 7.4 921
SUMMERFIELD Tara#448Local Senior Female0:20:35 7.4 937
COMMERFORD Bianca#391Local Senior Female0:20:37 7.4 948
PLATT Wayne#115Local Senior Male0:20:46 7.4 9534
VIRTUE Geoff#101Local Senior Male0:21:01 7.3 9635
HUNTER Jessi#389Local Junior Female0:21:06 7.3 976
COMMERFORD Peter#666Local Male 50+0:21:11 7.2 987
TAMBURO Alysha#478Local Senior Female0:21:11 7.2 999
RABY Georgie#335Local Senior Female0:21:39 7.1 1001
MORRISON Kerry#470Local Female 40-490:21:44 7 1013
LLOYD Greg#52Local Senior Male0:21:47 7 1021
FAIRWEATHER Robert#583Local Junior Male0:21:59 7 10313
CAMILLE Daven#668Local Junior Male0:22:00 7 10414
HALL Kerri#461Local Senior Female0:22:00 7 10510
CHALLINOR Michael#133Local Senior Male0:22:15 6.9 10636
GOODE Thomas#543Local Male 50+0:22:15 6.9 1071
PORTER Michael#628Local Male 40-490:22:18 6.9 10816
CARIAS Joe#606Local Male 50+0:22:26 6.8 1098
CHANDLER Mark#590Local Senior Male0:22:31 6.8 11037
WHEATLEY Stephen#518Local Male 40-490:22:33 6.8 11117
JONES Penny#338Local Senior Female0:22:50 6.7 11211
EISEN Zac#647Local Junior Male0:22:51 6.7 11315
HOMIR Fabizia#419Local Female 40-490:22:53 6.7 1144
CAMENZULI Maria#306Local Female 40-490:22:53 6.7 1151
WARD David#10Local Senior Male0:23:02 6.6 1161
JOHNSTONE Brian#639Local Male 40-490:23:04 6.6 11718
KEADY Richard#627Local Male 50+0:23:07 6.6 1189
DEMPSEY Daren#116Local Senior Male0:23:18 6.6 11938
ADKINS Susan#360Local Senior Female0:23:29 6.5 1201
ASBURY Tamara#329Local Senior Female0:23:34 6.5 1211
BAXTER Virginia#456Local Senior Female0:23:39 6.5 12212
MOORE Kellie#485Local Senior Female0:23:41 6.5 12313
STELZER Hermann#89Local Male 50+0:23:55 6.4 12410
KENT Chloe#437Local Junior Female0:24:23 6.3 1257
HANNON Bhavani#393Local Female 40-490:24:43 6.2 1265
KEWMING Robyn#320Local Female 50+0:24:48 6.2 1271
COOMBE Neal#619Local Male 50+0:24:51 6.2 12811
STEWART Scott#670Local Male 50+0:25:05 6.1 12912
WRIGHT Melanie#469Local Junior Female0:25:14 6.1 1308
THOMPSON Libby#386Local Senior Female0:25:44 5.9 13114
VAN CUYLENBURG Grant#597Local Male 40-490:25:46 5.9 13219
THOMPSON Jodie#432Local Senior Female0:25:48 5.9 13315
WILLIS Eddy#301Local Female 40-490:26:08 5.9 1341
WILLIAMSON Michele#312Local Female 50+0:26:36 5.8 1352
WILLIAMS Dwayne#223Local Senior Male0:26:53 5.7 13639
TALBOT Emma#388Local Senior Female0:27:13 5.6 13716
REEK George#595Local Male 50+0:28:32 5.4 13813
BLACKWELL Nicole Ann#458Local Senior Female0:29:20 5.2 13917
STOKES Janice#405Local Female 50+0:29:48 5.1 1403
COLE Ian#568Local Male 50+0:30:36 5 1411
O'BRIEN Michael#621Local Male 50+0:30:37 5 14214